Showing default

LYRA-3, 64577

Orbit data source: Space-Track

LYRA-3, 64577 is a payload satellite owned by Echostar AU (AU) in SSO that was launched on Mon, 23 Jun 2025 UTC via an FALCON 9 launch vehicle from the Air Force Western Test Range (AFWTR). Payload-class satellites include a variety of spacecraft equipped with specific instruments for various scientific and technological missions. These include communications satellites like Starlink; space stations such as the ISS; scientific satellites like the Hubble; Earth observation satellites from companies like Planet Labs, Umbra, and HawkEye 360; GPS; miniature CubeSats for education and research; and military/defense satellites.

Loading next visibility...
Identifier
64577, 2025-135BB
Orbit
SSO
Country
Flag of AUAU / AUS
Related business
Manufacturer
Astro Digital
Mission
Operational Commercial Communications
Bus & Motor
CORVUS XL, Unknown motor
Mass
74 kg wet, 74 kg dry
Launch date (UTC)
2025-06-23 (9 months ago)
Launch vehicle
FALCON 9
Launch site
Air Force Western Test Range (AFWTR)
Object type
Payload
Rocket body
Debris
Shape & HBR
Box, 1.0 m
Radar Cross Section
0.425 m², Medium (>0.1 m² and < 1m²)

Expand to show TLE details & history
Last TLE update: 15 hours ago

TLE from 15 hours ago
0 LYRA-3
1 64577U 25135BB  26071.71997601  .00002400  00000-0  37018-3 0  9999
2 64577  97.7637 180.6873 0019568 294.5168  65.4001 14.74153644 39059
Epoch: 2026-03-12T17:16Z
TLE epoch observation values (Epoch: 2026-03-12T17:16:45.927Z)
Latitude
0.00001°
Longitude
111.13012°
Altitude
645.155 km
Speed
7.538 km/s
True Right ascension
12h 02m 44s
True Declination
0° 00' 00"
Sunlit
Object was in full shadow at epoch
Visualization orbit readout
Latitude
Unknown
Longitude
Unknown
Altitude
Unknown
Speed
Unknown
Apparent Right ascension
Unknown
Apparent Declination
Unknown
Sunlit
N/A
Visualization observer readout
Local Sidereal Time
12:53:28
Azimuth
Unknown
Elevation
Unknown
Doppler factor
Unknown
Orbital elements
Apogee altitude
658.624 km
Perigee altitude
631.139 km
Semi-major axis
7,023.019 km
Eccentricity
0.00196
Inclination
97.7637°
RAAN
180.6873°
Arg. of periapsis
294.5168°
True anomaly
65.60419°
Mean anomaly
65.4001°
Eccentric anomaly
65.50212°
Mean motion
3.68772 °/min
Orbital period
97.62 mins
BSTAR
0.00037018
Loading maneuver chart data...
Computing Atmospheric mass density...
Loading historical data...
Loading historical data...
Loading historical data...
Loading historical data...
Loading historical data...
Loading historical data...
Loading historical data...

Documentation

Showing up to 5 results
|